QPF
0.12 0.12 0.10 0.10 0.07 0.06 0.05 0.08 0.12 0.13 0.14 0.16 0.18 0.19 0.15 0.08 0.05 0.03 0.01 0.02 0.03 0.05 0.07 0.10 0.12 0.14 0.13 0.11 0.07 0.05 0.05 0.03 0.02 0.01 0.01 0.00 0.00 0.00 0.00 0.00 0.00 0.00 0.00
0.09 0.09 0.08 0.07 0.06 0.05 0.05 0.05 0.07 0.10 0.13 0.14 0.15 0.15 0.13 0.10 0.07 0.05 0.03 0.03 0.04 0.07 0.09 0.11 0.13 0.16 0.16 0.13 0.10 0.06 0.05 0.05 0.05 0.04 0.02 0.01 0.01 0.00 0.00 0.00 0.00 0.00 0.00
0.04 0.05 0.04 0.05 0.05 0.06 0.05 0.04 0.04 0.06 0.08 0.09 0.09 0.11 0.14 0.13 0.09 0.08 0.07 0.05 0.05 0.08 0.11 0.12 0.15 0.18 0.21 0.19 0.13 0.11 0.07 0.05 0.05 0.06 0.04 0.03 0.02 0.02 0.01 0.00 0.00 0.00 0.00
0.03 0.03 0.02 0.02 0.03 0.04 0.04 0.03 0.02 0.02 0.03 0.03 0.03 0.06 0.11 0.15 0.15 0.13 0.11 0.09 0.08 0.07 0.09 0.13 0.17 0.22 0.25 0.26 0.22 0.16 0.12 0.08 0.05 0.05 0.05 0.05 0.04 0.04 0.02 0.01 0.01 0.00 0.00
0.01 0.01 0.01 0.01 0.01 0.02 0.02 0.02 0.02 0.02 0.02 0.02 0.03 0.04 0.06 0.10 0.12 0.13 0.12 0.11 0.10 0.09 0.09 0.10 0.17 0.21 0.25 0.26 0.28 0.26 0.21 0.14 0.09 0.06 0.06 0.06 0.07 0.06 0.04 0.03 0.02 0.01 0.00
0.00 0.00 0.00 0.00 0.00 0.00 0.00 0.01 0.01 0.01 0.02 0.01 0.02 0.03 0.04 0.05 0.08 0.09 0.08 0.09 0.09 0.09 0.09 0.09 0.12 0.15 0.22 0.25 0.27 0.30 0.31 0.27 0.17 0.09 0.07 0.07 0.09 0.08 0.05 0.04 0.04 0.03 0.01
0.00 0.00 0.00 0.00 0.00 0.00 0.00 0.00 0.00 0.00 0.01 0.00 0.01 0.01 0.01 0.03 0.05 0.07 0.08 0.09 0.09 0.09 0.10 0.10 0.12 0.13 0.14 0.18 0.21 0.24 0.29 0.32 0.27 0.18 0.10 0.08 0.09 0.07 0.04 0.04 0.05 0.06 0.05
0.00 0.00 0.00 0.00 0.00 0.00 0.00 0.00 0.00 0.00 0.00 0.01 0.02 0.02 0.02 0.03 0.03 0.05 0.07 0.08 0.08 0.08 0.09 0.09 0.09 0.11 0.12 0.13 0.11 0.14 0.21 0.26 0.26 0.23 0.17 0.11 0.08 0.06 0.03 0.04 0.04 0.05 0.07
0.00 0.00 0.00 0.00 0.00 0.00 0.00 0.00 0.00 0.00 0.00 0.01 0.03 0.05 0.06 0.06 0.05 0.05 0.05 0.06 0.07 0.08 0.06 0.06 0.06 0.07 0.10 0.12 0.09 0.10 0.16 0.18 0.23 0.27 0.22 0.15 0.09 0.06 0.04 0.03 0.04 0.04 0.04
0.00 0.00 0.00 0.00 0.00 0.00 0.00 0.00 0.00 0.00 0.00 0.00 0.01 0.03 0.05 0.08 0.09 0.07 0.06 0.06 0.08 0.08 0.08 0.07 0.06 0.05 0.06 0.08 0.08 0.07 0.08 0.11 0.15 0.22 0.24 0.20 0.13 0.07 0.03 0.03 0.04 0.04 0.04
0.00 0.00 0.00 0.00 0.00 0.00 0.00 0.00 0.00 0.00 0.00 0.00 0.00 0.01 0.03 0.06 0.09 0.10 0.09 0.09 0.10 0.08 0.08 0.08 0.07 0.05 0.05 0.05 0.06 0.06 0.06 0.07 0.09 0.13 0.18 0.20 0.18 0.11 0.05 0.04 0.05 0.06 0.06
0.00 0.00 0.00 0.00 0.00 0.00 0.00 0.00 0.00 0.00 0.00 0.00 0.00 0.00 0.01 0.03 0.06 0.08 0.07 0.07 0.10 0.12 0.10 0.09 0.08 0.06 0.06 0.06 0.04 0.04 0.06 0.06 0.06 0.07 0.08 0.10 0.14 0.14 0.10 0.07 0.07 0.08 0.08
0.00 0.00 0.00 0.00 0.00 0.00 0.00 0.00 0.00 0.00 0.00 0.00 0.00 0.00 0.00 0.00 0.01 0.04 0.05 0.05 0.06 0.08 0.08 0.07 0.07 0.07 0.07 0.07 0.05 0.07 0.06 0.07 0.06 0.05 0.05 0.05 0.06 0.08 0.09 0.08 0.08 0.09 0.11
0.00 0.00 0.00 0.00 0.00 0.00 0.00 0.00 0.00 0.00 0.00 0.00 0.00 0.00 0.00 0.00 0.00 0.02 0.03 0.05 0.06 0.06 0.07 0.06 0.06 0.07 0.07 0.06 0.07 0.10 0.07 0.07 0.07 0.06 0.04 0.04 0.03 0.03 0.04 0.04 0.04 0.04 0.06
0.00 0.00 0.00 0.00 0.00 0.00 0.00 0.00 0.00 0.00 0.00 0.00 0.00 0.00 0.00 0.00 0.01 0.01 0.02 0.04 0.07 0.08 0.08 0.06 0.06 0.07 0.08 0.08 0.08 0.09 0.07 0.08 0.08 0.06 0.05 0.04 0.04 0.03 0.03 0.02 0.02 0.01 0.01
0.00 0.00 0.00 0.00 0.00 0.00 0.00 0.00 0.00 0.00 0.00 0.00 0.00 0.00 0.00 0.00 0.00 0.01 0.01 0.02 0.05 0.08 0.08 0.08 0.08 0.08 0.09 0.09 0.10 0.09 0.10 0.12 0.10 0.07 0.05 0.04 0.04 0.04 0.04 0.02 0.02 0.01 0.01
0.00 0.00 0.00 0.00 0.00 0.00 0.00 0.00 0.00 0.00 0.00 0.00 0.00 0.00 0.00 0.00 0.00 0.00 0.01 0.01 0.03 0.05 0.08 0.08 0.09 0.10 0.10 0.10 0.09 0.09 0.09 0.10 0.09 0.07 0.06 0.04 0.03 0.03 0.03 0.03 0.02 0.01 0.01
0.00 0.00 0.00 0.00 0.00 0.00 0.00 0.00 0.00 0.00 0.00 0.00 0.00 0.00 0.00 0.00 0.00 0.00 0.00 0.00 0.01 0.03 0.05 0.08 0.09 0.12 0.13 0.12 0.11 0.11 0.09 0.09 0.08 0.07 0.06 0.05 0.03 0.02 0.02 0.02 0.02 0.01 0.01
0.00 0.00 0.00 0.00 0.00 0.00 0.00 0.00 0.00 0.00 0.00 0.00 0.00 0.00 0.00 0.00 0.00 0.00 0.00 0.00 0.00 0.02 0.03 0.05 0.08 0.12 0.17 0.18 0.16 0.12 0.08 0.08 0.07 0.06 0.05 0.04 0.04 0.03 0.02 0.02 0.02 0.02 0.01
0.00 0.00 0.00 0.00 0.00 0.00 0.00 0.00 0.00 0.00 0.00 0.00 0.00 0.00 0.00 0.00 0.00 0.00 0.00 0.00 0.00 0.01 0.02 0.04 0.06 0.11 0.18 0.23 0.21 0.17 0.10 0.06 0.05 0.04 0.04 0.03 0.03 0.03 0.02 0.01 0.01 0.02 0.01
0.00 0.00 0.00 0.00 0.00 0.00 0.00 0.00 0.00 0.00 0.00 0.00 0.00 0.00 0.00 0.00 0.00 0.00 0.00 0.00 0.00 0.00 0.01 0.03 0.04 0.10 0.18 0.26 0.26 0.22 0.15 0.09 0.05 0.03 0.03 0.02 0.02 0.02 0.02 0.01 0.01 0.01 0.01
0.00 0.00 0.00 0.00 0.00 0.00 0.00 0.00 0.00 0.00 0.00 0.00 0.00 0.00 0.00 0.00 0.00 0.00 0.00 0.00 0.00 0.00 0.00 0.01 0.03 0.07 0.16 0.25 0.31 0.33 0.24 0.13 0.05 0.03 0.02 0.02 0.02 0.02 0.02 0.01 0.01 0.01 0.01
0.00 0.00 0.00 0.00 0.00 0.00 0.00 0.00 0.00 0.00 0.00 0.00 0.00 0.00 0.00 0.00 0.00 0.00 0.00 0.01 0.01 0.00 0.00 0.00 0.02 0.04 0.11 0.24 0.33 0.35 0.30 0.21 0.10 0.04 0.02 0.01 0.02 0.02 0.02 0.02 0.02 0.01 0.01
0.00 0.00 0.00 0.00 0.00 0.00 0.00 0.00 0.00 0.00 0.00 0.00 0.00 0.00 0.00 0.00 0.00 0.00 0.00 0.00 0.00 0.00 0.00 0.00 0.01 0.03 0.08 0.18 0.33 0.39 0.39 0.31 0.20 0.10 0.04 0.02 0.02 0.02 0.02 0.02 0.03 0.02 0.01
0.00 0.00 0.00 0.00 0.00 0.00 0.00 0.00 0.00 0.00 0.00 0.00 0.00 0.00 0.00 0.00 0.00 0.00 0.00 0.00 0.00 0.00 0.01 0.01 0.01 0.02 0.08 0.18 0.29 0.44 0.48 0.41 0.27 0.15 0.06 0.02 0.01 0.01 0.02 0.02 0.02 0.03 0.02
0.00 0.00 0.00 0.00 0.00 0.00 0.00 0.00 0.00 0.00 0.00 0.00 0.00 0.00 0.00 0.00 0.00 0.00 0.01 0.01 0.00 0.00 0.01 0.01 0.01 0.02 0.05 0.16 0.25 0.31 0.41 0.41 0.29 0.17 0.08 0.03 0.01 0.01 0.01 0.01 0.01 0.01 0.01
MSLP
1015.24 1015.23 1015.19 1015.14 1015.10 1015.08 1015.09 1015.11 1015.14 1015.14 1015.12 1015.07 1014.99 1014.92 1014.86 1014.86 1014.91 1015.04 1015.21 1015.43 1015.66 1015.90 1016.14 1016.38 1016.63 1016.92 1017.24 1017.61 1018.02 1018.45 1018.90 1019.33 1019.74 1020.12 1020.46 1020.79 1021.11 1021.42 1021.74 1022.07 1022.39 1022.71 1023.02
1015.24 1015.20 1015.14 1015.10 1015.07 1015.07 1015.09 1015.11 1015.12 1015.10 1015.03 1014.92 1014.77 1014.62 1014.49 1014.40 1014.38 1014.42 1014.54 1014.71 1014.91 1015.15 1015.40 1015.67 1015.95 1016.27 1016.63 1017.02 1017.44 1017.89 1018.35 1018.80 1019.24 1019.67 1020.07 1020.46 1020.83 1021.20 1021.56 1021.92 1022.26 1022.59 1022.90
1015.20 1015.13 1015.08 1015.05 1015.06 1015.08 1015.12 1015.15 1015.15 1015.10 1014.98 1014.80 1014.59 1014.36 1014.14 1013.96 1013.85 1013.81 1013.85 1013.96 1014.13 1014.34 1014.59 1014.88 1015.20 1015.55 1015.94 1016.36 1016.81 1017.27 1017.74 1018.22 1018.68 1019.14 1019.59 1020.03 1020.46 1020.89 1021.30 1021.69 1022.06 1022.41 1022.74
1015.13 1015.05 1015.01 1015.01 1015.06 1015.12 1015.18 1015.22 1015.20 1015.11 1014.94 1014.71 1014.43 1014.12 1013.83 1013.57 1013.37 1013.24 1013.20 1013.24 1013.35 1013.52 1013.76 1014.06 1014.40 1014.79 1015.21 1015.66 1016.14 1016.62 1017.11 1017.60 1018.09 1018.57 1019.05 1019.53 1020.01 1020.48 1020.94 1021.37 1021.78 1022.15 1022.51
1015.06 1014.97 1014.95 1014.98 1015.06 1015.15 1015.23 1015.26 1015.23 1015.10 1014.89 1014.61 1014.27 1013.91 1013.56 1013.23 1012.96 1012.76 1012.64 1012.60 1012.65 1012.77 1012.98 1013.26 1013.62 1014.03 1014.48 1014.97 1015.47 1015.97 1016.48 1016.98 1017.48 1017.98 1018.48 1018.99 1019.50 1020.00 1020.49 1020.95 1021.39 1021.80 1022.18
1015.00 1014.90 1014.89 1014.95 1015.05 1015.16 1015.25 1015.27 1015.21 1015.05 1014.81 1014.49 1014.13 1013.74 1013.36 1013.00 1012.68 1012.42 1012.23 1012.11 1012.08 1012.15 1012.30 1012.56 1012.90 1013.31 1013.78 1014.29 1014.81 1015.34 1015.86 1016.37 1016.87 1017.38 1017.89 1018.41 1018.93 1019.45 1019.96 1020.45 1020.91 1021.34 1021.75
1014.96 1014.85 1014.84 1014.91 1015.02 1015.14 1015.21 1015.21 1015.13 1014.95 1014.69 1014.37 1014.01 1013.63 1013.26 1012.90 1012.56 1012.26 1012.01 1011.82 1011.71 1011.69 1011.78 1011.97 1012.27 1012.67 1013.13 1013.64 1014.17 1014.71 1015.23 1015.75 1016.25 1016.76 1017.27 1017.79 1018.31 1018.84 1019.35 1019.85 1020.32 1020.77 1021.20
1014.95 1014.82 1014.80 1014.86 1014.96 1015.06 1015.12 1015.10 1014.99 1014.81 1014.55 1014.26 1013.94 1013.61 1013.27 1012.94 1012.62 1012.30 1012.00 1011.74 1011.54 1011.42 1011.41 1011.52 1011.76 1012.10 1012.53 1013.02 1013.54 1014.06 1014.59 1015.10 1015.60 1016.09 1016.60 1017.11 1017.63 1018.16 1018.68 1019.18 1019.66 1020.12 1020.56
1014.96 1014.81 1014.77 1014.80 1014.88 1014.95 1014.97 1014.93 1014.81 1014.63 1014.41 1014.16 1013.91 1013.66 1013.40 1013.12 1012.83 1012.51 1012.18 1011.85 1011.56 1011.34 1011.22 1011.22 1011.35 1011.61 1011.97 1012.40 1012.88 1013.38 1013.88 1014.37 1014.86 1015.35 1015.85 1016.36 1016.88 1017.41 1017.93 1018.44 1018.93 1019.40 1019.85
1014.98 1014.80 1014.74 1014.74 1014.78 1014.81 1014.79 1014.72 1014.60 1014.44 1014.27 1014.09 1013.93 1013.77 1013.59 1013.40 1013.15 1012.84 1012.48 1012.10 1011.72 1011.39 1011.14 1011.02 1011.03 1011.17 1011.44 1011.79 1012.20 1012.64 1013.10 1013.56 1014.03 1014.50 1015.00 1015.52 1016.05 1016.59 1017.13 1017.66 1018.16 1018.65 1019.11
1014.98 1014.79 1014.70 1014.67 1014.66 1014.64 1014.59 1014.50 1014.38 1014.25 1014.13 1014.02 1013.95 1013.88 1013.81 1013.68 1013.49 1013.20 1012.83 1012.40 1011.94 1011.51 1011.15 1010.90 1010.78 1010.80 1010.94 1011.18 1011.49 1011.85 1012.24 1012.66 1013.10 1013.56 1014.06 1014.58 1015.14 1015.71 1016.28 1016.84 1017.38 1017.89 1018.37
1014.96 1014.76 1014.65 1014.58 1014.53 1014.47 1014.38 1014.28 1014.15 1014.05 1013.97 1013.94 1013.94 1013.96 1013.96 1013.90 1013.75 1013.49 1013.12 1012.66 1012.15 1011.65 1011.19 1010.83 1010.59 1010.48 1010.50 1010.61 1010.81 1011.07 1011.37 1011.72 1012.11 1012.56 1013.05 1013.60 1014.19 1014.80 1015.41 1016.02 1016.60 1017.14 1017.66
1014.88 1014.70 1014.57 1014.47 1014.38 1014.28 1014.16 1014.03 1013.91 1013.82 1013.78 1013.79 1013.85 1013.93 1013.98 1013.98 1013.87 1013.64 1013.28 1012.82 1012.29 1011.75 1011.24 1010.80 1010.46 1010.24 1010.13 1010.12 1010.20 1010.34 1010.55 1010.82 1011.15 1011.57 1012.06 1012.62 1013.24 1013.89 1014.56 1015.21 1015.84 1016.43 1016.98
1014.74 1014.57 1014.44 1014.32 1014.20 1014.06 1013.92 1013.77 1013.64 1013.55 1013.52 1013.56 1013.64 1013.75 1013.84 1013.87 1013.79 1013.59 1013.27 1012.83 1012.32 1011.79 1011.26 1010.79 1010.40 1010.10 1009.89 1009.77 1009.72 1009.75 1009.85 1010.03 1010.31 1010.68 1011.16 1011.72 1012.36 1013.05 1013.76 1014.46 1015.13 1015.76 1016.34
1014.52 1014.37 1014.23 1014.10 1013.96 1013.80 1013.63 1013.47 1013.32 1013.23 1013.19 1013.22 1013.31 1013.41 1013.51 1013.55 1013.50 1013.34 1013.06 1012.68 1012.23 1011.74 1011.26 1010.80 1010.39 1010.05 1009.78 1009.57 1009.43 1009.36 1009.36 1009.46 1009.67 1009.99 1010.43 1010.99 1011.63 1012.33 1013.06 1013.79 1014.48 1015.14 1015.74
1014.21 1014.08 1013.95 1013.81 1013.66 1013.48 1013.30 1013.12 1012.96 1012.84 1012.79 1012.79 1012.85 1012.94 1013.02 1013.06 1013.03 1012.91 1012.69 1012.39 1012.03 1011.63 1011.22 1010.82 1010.45 1010.11 1009.81 1009.56 1009.35 1009.20 1009.12 1009.15 1009.28 1009.55 1009.95 1010.47 1011.09 1011.78 1012.50 1013.22 1013.91 1014.57 1015.18
1013.81 1013.69 1013.56 1013.42 1013.27 1013.09 1012.90 1012.71 1012.54 1012.40 1012.32 1012.29 1012.31 1012.36 1012.41 1012.44 1012.43 1012.35 1012.20 1011.99 1011.74 1011.45 1011.14 1010.84 1010.53 1010.24 1009.95 1009.69 1009.45 1009.25 1009.13 1009.10 1009.19 1009.40 1009.76 1010.23 1010.80 1011.44 1012.12 1012.80 1013.45 1014.07 1014.65
1013.33 1013.22 1013.09 1012.96 1012.81 1012.63 1012.44 1012.25 1012.07 1011.92 1011.80 1011.74 1011.72 1011.73 1011.75 1011.77 1011.77 1011.73 1011.65 1011.53 1011.38 1011.21 1011.02 1010.82 1010.60 1010.37 1010.13 1009.89 1009.66 1009.46 1009.32 1009.27 1009.33 1009.51 1009.81 1010.24 1010.75 1011.32 1011.92 1012.52 1013.11 1013.67 1014.20
1012.81 1012.69 1012.56 1012.43 1012.28 1012.11 1011.93 1011.74 1011.55 1011.39 1011.26 1011.16 1011.11 1011.09 1011.09 1011.10 1011.10 1011.10 1011.08 1011.04 1010.99 1010.92 1010.84 1010.73 1010.60 1010.45 1010.27 1010.08 1009.89 1009.73 1009.61 1009.57 1009.63 1009.80 1010.07 1010.44 1010.89 1011.39 1011.90 1012.41 1012.90 1013.38 1013.84
1012.27 1012.13 1011.99 1011.85 1011.70 1011.54 1011.37 1011.18 1011.00 1010.83 1010.69 1010.58 1010.50 1010.46 1010.44 1010.45 1010.47 1010.50 1010.52 1010.55 1010.57 1010.58 1010.57 1010.55 1010.50 1010.42 1010.31 1010.19 1010.06 1009.95 1009.89 1009.90 1009.99 1010.17 1010.44 1010.79 1011.18 1011.60 1012.03 1012.45 1012.85 1013.23 1013.62
1011.74 1011.57 1011.42 1011.26 1011.11 1010.94 1010.77 1010.59 1010.41 1010.24 1010.10 1009.98 1009.90 1009.85 1009.83 1009.84 1009.87 1009.92 1009.98 1010.04 1010.11 1010.17 1010.22 1010.25 1010.25 1010.24 1010.19 1010.14 1010.09 1010.07 1010.08 1010.16 1010.31 1010.54 1010.83 1011.17 1011.54 1011.91 1012.28 1012.62 1012.94 1013.25 1013.56
1011.25 1011.04 1010.85 1010.67 1010.50 1010.32 1010.14 1009.95 1009.77 1009.61 1009.47 1009.36 1009.28 1009.23 1009.23 1009.24 1009.29 1009.36 1009.44 1009.53 1009.62 1009.70 1009.78 1009.84 1009.88 1009.90 1009.91 1009.93 1009.96 1010.01 1010.12 1010.29 1010.51 1010.80 1011.14 1011.51 1011.88 1012.24 1012.58 1012.88 1013.16 1013.42 1013.70
1010.79 1010.54 1010.31 1010.10 1009.89 1009.69 1009.48 1009.29 1009.11 1008.94 1008.80 1008.70 1008.63 1008.60 1008.61 1008.64 1008.71 1008.79 1008.88 1008.98 1009.08 1009.18 1009.26 1009.33 1009.39 1009.44 1009.49 1009.56 1009.66 1009.80 1009.99 1010.24 1010.55 1010.92 1011.32 1011.73 1012.14 1012.53 1012.87 1013.19 1013.46 1013.73 1013.99
1010.36 1010.07 1009.80 1009.54 1009.29 1009.05 1008.82 1008.61 1008.41 1008.24 1008.10 1008.01 1007.95 1007.94 1007.96 1008.01 1008.09 1008.19 1008.30 1008.41 1008.51 1008.60 1008.68 1008.76 1008.82 1008.89 1008.98 1009.09 1009.24 1009.44 1009.70 1010.03 1010.42 1010.85 1011.32 1011.80 1012.27 1012.71 1013.11 1013.47 1013.79 1014.10 1014.40
1009.93 1009.60 1009.29 1008.99 1008.70 1008.42 1008.16 1007.92 1007.71 1007.53 1007.39 1007.29 1007.24 1007.24 1007.27 1007.34 1007.44 1007.55 1007.67 1007.79 1007.90 1007.99 1008.08 1008.16 1008.24 1008.32 1008.43 1008.57 1008.75 1009.00 1009.31 1009.68 1010.13 1010.62 1011.15 1011.69 1012.23 1012.74 1013.22 1013.67 1014.08 1014.47 1014.84
1009.48 1009.12 1008.77 1008.44 1008.12 1007.82 1007.53 1007.27 1007.04 1006.84 1006.69 1006.59 1006.54 1006.53 1006.57 1006.65 1006.75 1006.87 1007.00 1007.13 1007.25 1007.37 1007.47 1007.57 1007.66 1007.77 1007.89 1008.05 1008.25 1008.52 1008.85 1009.25 1009.72 1010.25 1010.82 1011.42 1012.02 1012.61 1013.19 1013.73 1014.25 1014.75 1015.22
Thickness
5728 5727 5725 5724 5724 5723 5723 5723 5723 5722 5722 5722 5722 5722 5722 5721 5721 5721 5722 5722 5723 5724 5725 5727 5727 5728 5728 5728 5727 5726 5726 5725 5725 5725 5724 5724 5724 5723 5722 5721 5719 5718 5717
5722 5720 5719 5718 5717 5716 5716 5716 5716 5716 5717 5717 5717 5718 5719 5719 5719 5719 5720 5720 5721 5722 5723 5725 5726 5727 5727 5727 5727 5727 5726 5725 5724 5724 5724 5723 5723 5722 5721 5720 5719 5718 5717
5714 5713 5711 5710 5709 5709 5709 5709 5709 5710 5711 5711 5712 5713 5715 5716 5717 5718 5718 5718 5719 5720 5721 5723 5725 5726 5727 5727 5727 5727 5726 5725 5725 5724 5723 5722 5722 5721 5721 5720 5719 5718 5717
5706 5704 5703 5702 5701 5701 5701 5701 5702 5702 5703 5704 5706 5708 5710 5712 5714 5715 5716 5716 5717 5718 5719 5720 5722 5724 5726 5726 5726 5726 5726 5725 5724 5724 5723 5722 5721 5721 5720 5719 5719 5718 5717
5697 5696 5694 5694 5693 5693 5693 5693 5693 5694 5695 5697 5699 5703 5705 5708 5710 5712 5714 5715 5715 5715 5716 5717 5719 5722 5723 5725 5725 5726 5726 5725 5724 5723 5722 5722 5721 5720 5719 5719 5718 5717 5717
5689 5688 5687 5686 5685 5684 5684 5684 5684 5685 5687 5689 5692 5697 5700 5704 5706 5708 5711 5712 5713 5713 5714 5714 5716 5719 5721 5723 5724 5725 5725 5724 5724 5723 5722 5722 5721 5720 5720 5719 5718 5717 5716
5681 5680 5679 5678 5677 5675 5675 5675 5675 5676 5678 5681 5683 5687 5694 5699 5701 5704 5706 5708 5710 5711 5711 5712 5714 5715 5719 5721 5723 5724 5724 5724 5724 5723 5723 5722 5721 5721 5720 5719 5718 5717 5716
5673 5672 5671 5670 5669 5668 5667 5667 5667 5667 5668 5671 5672 5674 5679 5687 5694 5699 5700 5702 5705 5707 5708 5710 5711 5713 5715 5718 5721 5723 5723 5723 5723 5723 5722 5722 5722 5721 5720 5719 5718 5717 5716
5666 5665 5664 5663 5662 5661 5659 5659 5659 5659 5659 5661 5663 5663 5665 5670 5678 5688 5692 5696 5699 5701 5704 5706 5708 5710 5713 5716 5719 5721 5723 5723 5722 5723 5723 5723 5722 5721 5721 5720 5719 5718 5717
5658 5657 5657 5656 5655 5653 5652 5652 5652 5651 5651 5651 5653 5655 5657 5660 5663 5672 5681 5687 5691 5694 5698 5702 5705 5708 5711 5714 5717 5720 5722 5723 5723 5723 5723 5723 5722 5722 5721 5720 5719 5718 5717
5651 5650 5649 5648 5647 5646 5645 5644 5644 5643 5643 5643 5643 5646 5648 5652 5655 5658 5666 5673 5680 5687 5693 5697 5701 5705 5709 5712 5715 5718 5720 5722 5723 5723 5724 5724 5723 5722 5721 5720 5719 5718 5717
5644 5643 5642 5640 5639 5638 5637 5637 5636 5636 5635 5635 5636 5637 5639 5641 5645 5648 5653 5660 5667 5677 5686 5692 5696 5701 5706 5709 5713 5716 5718 5720 5722 5723 5724 5724 5724 5723 5722 5721 5720 5719 5718
5637 5636 5634 5632 5631 5630 5629 5628 5627 5627 5627 5627 5628 5629 5631 5633 5636 5640 5644 5650 5657 5667 5676 5684 5691 5696 5701 5705 5709 5713 5715 5718 5720 5722 5723 5724 5724 5724 5722 5721 5720 5719 5718
5631 5629 5627 5624 5622 5621 5620 5619 5618 5618 5618 5618 5620 5621 5623 5626 5628 5632 5636 5640 5646 5656 5665 5673 5682 5688 5693 5698 5704 5707 5711 5715 5717 5719 5721 5722 5723 5723 5722 5721 5720 5719 5718
5626 5624 5620 5617 5614 5612 5610 5609 5608 5608 5608 5609 5611 5612 5615 5618 5621 5624 5628 5632 5635 5642 5652 5662 5670 5678 5683 5690 5696 5701 5706 5711 5714 5716 5718 5720 5721 5721 5721 5721 5720 5719 5718
5620 5617 5614 5610 5607 5604 5602 5600 5599 5598 5599 5600 5601 5603 5606 5610 5613 5617 5621 5625 5629 5634 5641 5651 5658 5666 5673 5681 5688 5694 5700 5706 5709 5712 5714 5716 5718 5719 5719 5719 5719 5718 5717
5615 5611 5607 5603 5600 5597 5595 5592 5590 5590 5590 5591 5592 5594 5598 5601 5604 5609 5613 5617 5622 5627 5633 5641 5649 5656 5664 5671 5679 5686 5692 5698 5703 5706 5709 5711 5714 5715 5716 5716 5717 5716 5716
5609 5604 5600 5596 5593 5591 5588 5585 5583 5583 5582 5582 5584 5586 5589 5592 5596 5600 5604 5609 5614 5620 5625 5632 5639 5646 5654 5662 5669 5675 5682 5688 5693 5698 5702 5705 5708 5710 5712 5713 5714 5714 5714
5603 5598 5593 5589 5586 5583 5580 5578 5577 5576 5575 5575 5576 5578 5581 5583 5586 5590 5595 5600 5605 5612 5617 5623 5629 5636 5645 5652 5658 5664 5670 5676 5682 5688 5693 5697 5701 5704 5706 5709 5710 5711 5712
5596 5592 5587 5583 5579 5576 5573 5571 5570 5569 5568 5568 5569 5570 5572 5575 5578 5582 5586 5591 5596 5601 5608 5614 5620 5626 5634 5642 5648 5654 5659 5665 5670 5677 5682 5687 5692 5696 5699 5703 5705 5707 5708
5591 5586 5581 5576 5572 5569 5567 5566 5563 5562 5561 5561 5561 5562 5564 5566 5569 5573 5577 5581 5586 5591 5598 5604 5611 5617 5624 5632 5640 5646 5650 5654 5659 5666 5672 5677 5682 5686 5690 5695 5699 5701 5703
5585 5579 5574 5570 5566 5564 5562 5559 5556 5555 5554 5553 5553 5553 5554 5557 5561 5564 5569 5573 5577 5582 5589 5595 5602 5608 5616 5624 5632 5637 5642 5646 5650 5657 5663 5665 5671 5676 5681 5686 5691 5695 5697
5578 5573 5568 5564 5560 5557 5554 5551 5548 5546 5545 5545 5544 5544 5545 5549 5551 5554 5558 5563 5569 5574 5580 5587 5594 5601 5608 5616 5623 5630 5635 5640 5645 5650 5654 5654 5659 5664 5670 5676 5682 5687 5690
5572 5567 5563 5558 5554 5551 5548 5544 5541 5538 5537 5536 5536 5536 5536 5537 5539 5541 5546 5551 5557 5564 5570 5577 5585 5593 5599 5606 5614 5622 5628 5631 5635 5640 5647 5646 5647 5652 5658 5665 5672 5678 5682
5567 5562 5557 5553 5548 5545 5541 5537 5533 5530 5529 5528 5527 5527 5527 5528 5529 5530 5534 5539 5545 5552 5557 5565 5573 5581 5589 5596 5604 5611 5617 5623 5627 5630 5635 5640 5639 5642 5646 5653 5660 5667 5672
5561 5556 5552 5548 5543 5539 5535 5530 5526 5523 5521 5520 5518 5517 5517 5518 5518 5519 5522 5527 5533 5540 5545 5552 5560 5568 5576 5585 5594 5603 5611 5617 5622 5625 5627 5632 5633 5637 5638 5641 5648 5655 5661